Погода в Туле

Погода в Туле : погода сейчас, прогноз погоды и архив. Всё, что Вы хотите узнать о погоде в Туле!

Хотите узнать прогноз погоды в Туле? Тогда Вам сюда: Погода в Туле

Поиск расширенной информации на нашем сайте:

Другие новости

Новости СМИ2

Главная страница сайта

Новости сайта

02.10.2013

Напоминаем, что на нашем новом сайте вы можете получить высокодетализированные прогнозы погоды по пунктам России, СНГ и мира (включающие важные для авиации метеовеличины, такие как направление и скорость ветра, видимость, явления погоды, количество и форма облачности, нижняя и верхняя граница облачности), а также ознакомиться с разнообразными материалами по авиационной метеорологии и подборкой полезных ссылок на эту тему.

Сайт Метеоцентр.Азия посвящён разработке технологий оптимизации авиаметеорологического обслуживания, включая проектирование и перспективное создание нескольких автоматизированных авиаметеорологических систем:
- система выпуска высокодетальных прогностических карт явлений погоды для нижнего воздушного пространства по России и ближнему зарубежью;
- система верификации прогнозов TAF (выпускаемых синоптиками официальных АМСГ РФ и ближнего зарубежья) и AUTOTAF (выпускаемых сайтом Метеоцентр.Азия) - выявление ошибок, онлайн-сопоставление с фактической погодой METAR, автоматическое внесение коррективов в прогнозы при резком отклонении фактической погоды от прогноза, подсчёт оправдываемости прогнозов по элементам и в целом;
- система обработки, анализа и отображения авиаметеорологической информации для применения провайдерами метеорологической информации.

Рекомендуем: купить квартиру в туле недорого

Погода в Туле - сегодня

Время (UTC), дата Ветер
(°,м/с) 
Видим.   Явления Облачность Т
(°С)
Тd
(°С)
f(%) Тe
(°С)
Pmin
(гПа)
dP
(гПа)
Po
(мм)
O2
(г/м3)
Тmin Tmax R s Состояние
почвы
00 25.05.17 200 (Ю) 10 км    8/8 1000 м 
[Sc]
+12 +10.1 88 +13  1014.1  0.4  742  285           
03 25.05.17 200 (Ю) 10 км  слаб. ливневой дождь  9/9 600 м кучево-дожд. 
[Cb calv]
+12.8 +10.3 85 +15  1014.3  0.2  743  284  +11.6    0.0     
06 25.05.17 170 (Ю) 10 км  {ливн. осадки}  8/0 средняя, верхняя 
[Ac trans|Ci fib]
+18.1 +10.7 62 +21  1013.2  -0.6  742  278  +11.6    0.0    влажная 
09 25.05.17 200 (Ю) 6-10{10}  10 км    9/4 1000 м верхняя 
[Cu med, cong|Ci fib]
+22.8 +9.8 44 +24  1012.8  -0.2  742  274           
12 25.05.17 230 (ЮЗ) 4{13}  10 км  в посл. час ливневой дождь  9/8 600 м кучево-дожд., верхняя 
[Cb calv|Ci fib]
+17.9 +8.9 56 +18  1012.7  -0.3  742  279           
15 25.05.17 250 (З) 10 км    8/3 600 м средняя, верхняя 
[Cu med, cong|Ac trans|Ci fib]
+17.8 +10.3 61 +20  1012.9  0.2  742  279      0.0     
18 25.05.17 210 (ЮЗ) 10 км    9/0 средняя, верхняя 
[Ac trans|Ci fib]
+14.8 +7.6 62 +16  1013.1  -0.1  742  282    +23.1  0.0     
21 25.05.17 200 (Ю) 10 км    4/0 средняя 
[Ac trans]
+13.5 +7.2 66 +14  1013.1  -0.1  742  284           
00 26.05.17 200 (Ю) 10 км    8/0 средняя 
[Ac trans]
+12.7 +7.6 71 +13  1013.1  -0.1  742  284           
03 26.05.17 тихо ()   10 км  слаб. ливневой дождь  10/6 600 м кучево-дожд., средняя 
[Cb calv|Ac und]
+12.7 +9.4 80 +13  1012.5  -0.5  741  284  +12.2    0.0     
06 26.05.17 250 (З) 10 км  слаб. ливневой дождь  10/10 600 м кучево-дожд. 
[Cb calv]
+13.6 +10.5 82 +17  1012.4  -0.3  741  282  +12.2    0.3    влажная 
09 26.05.17 220 (ЮЗ) 10 км  {ливн. осадки}  10/10 600 м кучево-дожд. 
[Cb calv]
+14.8 +10.5 75 +17  1012.4  0.1  741  281           
12 26.05.17 200 (Ю) 10 км  {ливн. осадки}  9/4 1000 м средняя, верхняя 
[Cu med, cong|Ac trans|Cc]
+18.4 +10.9 62 +22  1010.6  -1.5  740  277           
21 26.05.17 240 (ЮЗ) 10 км    10/10 1500 м 
[Sc]
+12.3 +11.1 92 +16  1010.2  0.1  739  283           
03 27.05.17 340 (С) 10 км  {ливн. осадки}  9/5 600 м кучево-дожд., средняя, верхняя 
[Cb calv|Ac trans|Ci sp]
+11.2 +9.8 91 +12  1011.8  0.9  740  285  +11.2       
06 27.05.17 320 (СЗ) 10 км  {ливн. осадки}  9/4 600 м кучево-дожд., средняя, верхняя 
[Cb calv|Ac trans|Ci fib]
+14.1 +8.3 68 +15  1012.4  1.1  741  283  +11.2      влажная 
09 27.05.17 330 (СЗ) 10 км    6/6 600 м 
[Cu med, cong]
+16.2 +5.7 50 +16  1013.6  742  281           
21 27.05.17 тихо ()   10 км    ясно 
+8.3 +4.6 77 +8  1016  0.3  743  290           
00 28.05.17 190 (Ю) 10 км    9/9 1000 м 
[Sc]
+8 +5.1 82 +9  1014.9  -0.8  743  290           
03 28.05.17 240 (ЮЗ) 10 км  слаб. ливневой дождь  10/10 600 м кучево-дожд. 
[Cb calv]
+8.7 +5.9 83 +10  1014.1  -0.8  742  289  +7    0.0     
06 28.05.17 280 (З) 10 км  {ливн. осадки}  9/8 600 м кучево-дожд., средняя 
[Cb calv|Ac trans]
+10.9 +6.7 75 +11  1013.7  -0.2  742  286  +7    0.3    влажная 
09 28.05.17 340 (С) 3{10}  10 км    9/8 600 м кучево-дожд., средняя 
[Cb calv|Ac trans]
+13.1 +3.8 53 +13  1014.2  0.7  743  285           
15 28.05.17 350 (С) 10 км    8/3 1000 м верхняя 
[Cu med, cong|Ci fib]
+10.8 +0.3 48 +11  1018.7  1.1  746  289      0.3     
21 28.05.17 200 (Ю) 10 км    ясно 
+6.8 +2.3 73 +7  1019.5  -0.1  746  293           
03 29.05.17 210 (ЮЗ) 6-10{10}  10 км    8/4 600 м кучево-дожд., верхняя 
[Cb calv|Ci fib]
+9.8 +4.9 72 +8  1013.6  -3  742  288  +6.1         
Время (UTC), дата Ветер
(°,м/с) 
Видим.   Явления Облачность Т
(°С)
Тd
(°С)
f(%) Тe
(°С)
Pmin
(гПа)
dP
(гПа)
Po
(мм)
O2
(г/м3)
Тmin Tmax R s Состояние
почвы

Для получения пояснительной информации подведите курсор к названию столбца.

ПОГОДА в Туле - архив

Всё, что Вы хотите узнать о погоде в Туле - удобно и подробно!

Выберите нужную дату (начиная с 1 января 2015* года) и нажмите кнопку "Найти".
Будут отображены архивные сводки погоды по пункту Тула, начиная с указанной даты.


Отображать данные в формате CSV (для использования в таблицах Excel)


Внимание! Наш архив погоды предназначен исключительно для личного некоммерческого использования в познавательных целях. Если Вам необходимы официальные справки о состоянии погоды (для производственных, юридических, коммерческих и т.п. целей), обращайтесь в органы Росгидромета.

*Примечание: данная дата относится к архиву по метеостанциям СССР (Россия, СНГ, Балтия).
Архив по метеостанциям Зарубежной Европы и Азии (кроме Китая) хранится 10 дней, по другим регионам земного шара (Китай, Африка, Америка, Австралия, Океания) - 1 день.

Тула - район местоположения метеостанции


Название, широта, долгота, высота метеостанции:
Тула 54.2°ш. 37.6°д. 203 м над ур. моря [Российская Федерация]

Дополнительная информация

В oтличие oт бoльшинства пoгoдных сайтoв мы публикуем пoдрoбную метеoинфoрмацию в детальнoм прoфессиoнальнoм фoрмате.

Характеристики температуры и влажнoсти вoздуха измеряются на высoте 2 м в тени вдали oт зданий и деревьев.
Скoрoсть ветра измеряется на высoте 10 м (на урoвне рoста челoвека скoрoсть ветра ниже в 1.5-2 раза). Если метеoстанция нахoдится в гoрoде или в лесу, тo скoрoсть ветра занижена на 2-4 м/с пo сравнению с oткрытым местoм. Скoрoсть ветра над акватoриями крупных рек и oзёр, а также на вершинах хoлмoв на 2-5 м/с выше, чем в oбычных услoвиях.
Атмoсфернoе давление в разных тoчках местнoсти мoжет значительнo oтличаться oт давления на метеoстанции, в зависимoсти oт услoвий рельефа (при пoдъёме на 10 м давление пoнижается примернo на 1 мм рт.ст.).